This is the latest recevied weather packets stored in our database for station/object KN6DHD. If no packets are shown the sender has not sent any weather packets the latest 1 day(s).
| Time | Temp. | Humidity | Pressure | Rain* | Wind** | Luminosity | Snow |
|---|---|---|---|---|---|---|---|
| 1777997270 | 12.78° C | 99% | 1016.1 hPa | 0 mm | 0 m/s | 112 W/m² | - |
| 1777996968 | 12.78° C | 99% | 1016.1 hPa | 0 mm | 0 m/s | 100 W/m² | - |
| 1777996664 | 12.78° C | 99% | 1016 hPa | 0 mm | 0 m/s | 90 W/m² | - |
| 1777996360 | 12.22° C | 99% | 1015.7 hPa | 0 mm | 0 m/s | 68 W/m² | - |
| 1777996057 | 12.22° C | 99% | 1016.1 hPa | 0 mm | 0 m/s | 46 W/m² | - |
| 1777995753 | 12.22° C | 99% | 1016.1 hPa | 0 mm | 0 m/s | 49 W/m² | - |
| 1777995450 | 12.22° C | 99% | 1016 hPa | 0 mm | 0 m/s | 44 W/m² | - |
| 1777995147 | 12.22° C | 99% | 1015.9 hPa | 0 mm | 0 m/s | 36 W/m² | - |
| 1777994844 | 12.22° C | 99% | 1016.1 hPa | 0 mm | 0 m/s | 34 W/m² | - |
| 1777994540 | 12.22° C | 99% | 1015.8 hPa | 0 mm | 0 m/s | 32 W/m² | - |
| 1777994235 | 12.22° C | 99% | 1015.6 hPa | 0 mm | 0 m/s | 37 W/m² | - |
| 1777993933 | 12.22° C | 99% | 1015.8 hPa | 0 mm | 0 m/s | 35 W/m² | - |
| 1777993629 | 12.22° C | 99% | 1015.9 hPa | 0 mm | 0 m/s | 32 W/m² | - |
| 1777993326 | 12.22° C | 99% | 1015.7 hPa | 0 mm | 0 m/s | 36 W/m² | - |
| 1777993026 | 12.22° C | 99% | 1015.8 hPa | 0 mm | 0 m/s | 34 W/m² | - |
| 1777992725 | 12.22° C | 99% | 1015.6 hPa | 0 mm | 0 m/s | 31 W/m² | - |
| 1777992422 | 12.22° C | 99% | 1015.6 hPa | 0 mm | 0 m/s | 25 W/m² | - |
| 1777992120 | 11.67° C | 99% | 1015.9 hPa | 0 mm | 0 m/s | 19 W/m² | - |
| 1777991817 | 11.67° C | 99% | 1015.5 hPa | 0 mm | 0 m/s | 21 W/m² | - |
| 1777991514 | 11.67° C | 99% | 1015.7 hPa | 0 mm | 0 m/s | 26 W/m² | - |
| 1777991211 | 11.67° C | 99% | 1015.4 hPa | 0 mm | 0 m/s | 23 W/m² | - |
| 1777990909 | 11.67° C | 99% | 1015.2 hPa | 0 mm | 0 m/s | 24 W/m² | - |
| 1777990606 | 11.67° C | 99% | 1015.2 hPa | 0 mm | 0 m/s | 22 W/m² | - |
| 1777990303 | 11.67° C | 99% | 1015.4 hPa | 0 mm | 0 m/s | 22 W/m² | - |
| 1777989999 | 11.67° C | 99% | 1015.5 hPa | 0 mm | 0 m/s | 17 W/m² | - |
* Rain latest hour (hover to see other rain measurements)
** Current wind speed in m/s (hover to see current wind gust speed)